Location: Houghton
(47.1220°N, 88.5690°W)
Time: 12:50:42
(UTC-04:00)

Envisat - Visible Passes

Search period start: 18 October 2017 00:00
Search period end: 28 October 2017 00:00
Orbit: 764 x 766 km, 98.2° (Epoch: 18 October)

Date Brightness Start Highest point End Pass type
(mag) Time Alt. Az. Time Alt. Az. Time Alt. Az.
18 Oct 3.0 21:12:32 57° ENE 21:12:38 57° ENE 21:17:38 10° N visible
18 Oct 5.3 22:52:44 20° W 22:52:44 20° W 22:55:47 10° NW visible
19 Oct 3.8 20:35:33 28° ENE 20:36:09 29° ENE 20:40:29 10° N visible
19 Oct 4.2 22:15:46 39° WNW 22:15:46 39° WNW 22:19:50 10° NNW visible
20 Oct 4.6 19:58:34 14° ENE 19:59:52 16° ENE 20:02:47 10° NNE visible
20 Oct 3.1 21:38:47 71° NNW 21:38:47 71° NNW 21:43:19 10° NNW visible
20 Oct 5.9 23:19:00 11° WNW 23:19:00 11° WNW 23:19:52 10° WNW visible
21 Oct 3.3 21:01:48 46° ENE 21:01:48 46° ENE 21:06:26 10° N visible
21 Oct 5.1 22:42:01 23° WNW 22:42:01 23° WNW 22:44:59 10° NW visible
22 Oct 4.0 20:24:49 24° ENE 20:25:09 24° ENE 20:29:11 10° N visible
22 Oct 4.0 22:05:02 43° WNW 22:05:02 43° WNW 22:08:50 10° NNW visible
23 Oct 4.7 19:47:50 12° ENE 19:48:55 13° NE 19:51:08 10° NNE visible
23 Oct 3.2 21:28:03 58° N 21:28:03 58° N 21:32:12 10° N visible
23 Oct 5.8 23:08:16 13° WNW 23:08:16 13° WNW 23:09:36 10° NW visible
24 Oct 3.6 20:51:03 37° NE 20:51:03 37° NE 20:55:13 10° N visible
24 Oct 5.0 22:31:16 25° WNW 22:31:16 25° WNW 22:34:07 10° NNW visible
25 Oct 4.3 20:14:04 20° ENE 20:14:10 20° ENE 20:17:48 10° NNE visible
25 Oct 4.0 21:54:17 42° NW 21:54:17 42° NW 21:57:47 10° NNW visible
26 Oct 4.9 19:37:05 10° ENE 19:37:59 10° NE 19:38:57 10° NE visible
26 Oct 3.5 21:17:18 46° NNE 21:17:18 46° NNE 21:21:03 10° N visible
26 Oct 5.7 22:57:31 15° WNW 22:57:31 15° WNW 22:59:01 10° NW visible
27 Oct 3.9 20:40:18 30° NE 20:40:18 30° NE 20:43:58 10° N visible
27 Oct 4.9 22:20:31 27° NW 22:20:31 27° NW 22:23:11 10° NNW visible
